Regional Weather Roundup
Issued by NWS Northern Indiana

Home | Current Version | Previous Version | Graphics & Text | Print | Product List | Glossary On
Versions: 1 2 3 4 5 6 7 8 9 10 11 12 13 14 15 16 17 18 19 20 21 22 23 24 25 26 27 28 29 30 31 32 33 34 35 36 37 38 39 40 41 42 43 44 45 46 47 48 49 50
000
ASUS43 KIWX 280100
RWRIWX

KIWX WEATHER ROUNDUP
NATIONAL WEATHER SERVICE NORTHERN INDIANA
900 PM EDT TUE JUN 27 2017

NOTE: "FAIR" INDICATES FEW OR NO CLOUDS BELOW 12,000 FEET WITH NO
SIGNIFICANT WEATHER AND/OR OBSTRUCTIONS TO VISIBILITY.

* THESE STATIONS ARE NOT UNDER NWS QUALITY CONTROL. THEY ALSO MAY NOT
  REPORT WEATHER SUCH AS PRECIPITATION OR FOG.

INZ001>027-280200-
NORTHERN INDIANA

CITY           SKY/WX    TMP DP  RH WIND       PRES   REMARKS
GARY*          PTCLDY    72  48  43 CALM      30.04S
MICHIGAN CITY* CLEAR     68  46  45 CALM      30.05S
SOUTH BEND     CLEAR     69  42  37 CALM      30.06S
ELKHART*       CLEAR     68  41  37 CALM      30.06S
GOSHEN         CLEAR     65  42  43 W5        30.07R
MONTICELLO*    CLEAR     70  47  44 S5        30.06S
FORT WAYNE     PTCLDY    67  52  58 W3        30.08R
PERU/GRISSOM   CLEAR     66  52  61 SW5       30.04F

$$
INZ028>050-280200-
CENTRAL INDIANA

CITY           SKY/WX    TMP DP  RH WIND       PRES   REMARKS
LAFAYETTE      CLEAR     68  51  54 CALM      30.06S
KOKOMO*        CLEAR     70  48  45 W5        30.09S
MUNCIE*        CLEAR     69  47  45 CALM      30.09R
INDIANAPOLIS   PTCLDY    66  49  54 SW7       30.08R

$$
MIZ043>046-050>051-056>058-064>065-071>073-077>080-280200-
SOUTHWEST LOWER MICHIGAN

CITY           SKY/WX    TMP DP  RH WIND       PRES   REMARKS
BATTLE CREEK   CLEAR     65  46  50 W6        30.06S
BENTON HARBOR  CLEAR     69  42  37 CALM      30.05S
COLDWATER*     CLEAR     65  41  41 W5        30.06S
HILLSDALE*     CLEAR     63  43  48 W5        30.05S
HOLLAND        CLEAR     65  49  56 SW6       30.05S
GRAND RAPIDS   PTCLDY    67  47  48 W8        30.04S
KALAMAZOO      CLEAR     67  41  38 W5        30.06S
STURGIS*       CLEAR     65  45  47 CALM      30.06S
THREE RIVERS*  FAIR      65  44  45 CALM      30.07S

$$
OHZ001>008-015>018-024>025-280200-
NORTHWEST OHIO

CITY           SKY/WX    TMP DP  RH WIND       PRES   REMARKS
DEFIANCE       CLEAR     67  46  47 SW3       30.06R
FINDLAY        PTCLDY    67  46  47 SW7       30.06S
TOLEDO EXPRESS MOCLDY    66  50  56 SW5       30.04S
TOLEDO METCALF PTCLDY    69  48  47 SW7       30.05S
LIMA           CLEAR     65  47  52 SW6       30.08S

$$
AND FOR LAKE MICHIGAN COASTAL AND OPEN LAKE BUOY OBSERVATIONS

STATION/POSITION TEMP    WIND        PRES    VSBY  WAVE
                 AIR SEA DIR/SP/G                  HT/PER
                 (F)     (DEG/KT/KT) (MB)    (MI)  (FT/S)
CALUMET HARBOR    68     110/  7/ 10 1016.4R
MICHIGAN CITY     71     100/  5/  7   N/A
BURNS HARBOR      74     180/  6/ 11 1017.3F
SOUTH LAKE BUOY   63 62  170/ 10/ 12 1016.9          1/ 2
4 MI NW BRIDGMAN  69 69  160/  4/  4 1017.3F         1
MICHIGAN CITY     67 66   90/  6/  8   N/A           1

$$
&&




USA.gov is the U.S. government's official web portal to all federal, state and local government web resources and services.